Waarnemingen

Advertentie
Mijn weer
Calvi, Frankrijk (7754): temperatuur & dauwpunt: 14.02.2019 15:00:00 - 20.02.2019 15:00:00 (CET)Calvi, Frankrijk (7754): temperatuur 5cm: 14.02.2019 15:00:00 - 20.02.2019 15:00:00 (CET)Calvi, Frankrijk (7754): windsnelheid & windstoten: 14.02.2019 15:00:00 - 20.02.2019 15:00:00 (CET)Calvi, Frankrijk (7754): windrichting: 14.02.2019 15:00:00 - 20.02.2019 15:00:00 (CET)Calvi, Frankrijk (7754): luchtdruk: 14.02.2019 15:00:00 - 20.02.2019 15:00:00 (CET)Calvi, Frankrijk (7754): zicht: 14.02.2019 15:00:00 - 20.02.2019 15:00:00 (CET)Calvi, Frankrijk (7754): neerslag: 14.02.2019 15:00:00 - 20.02.2019 15:00:00 (CET)
Datum & Tijd tt [°C] td [°C] tt 5cm [°C] ff [km/u] ff [kn] fx [km/u] fx [kn] dd ppp [hPa] vv [km] rr [mm]
20.02.2019 15:00:00 - - - - - - - - - - -
20.02.2019 14:00:00 - - - - - - - - - - -
20.02.2019 13:00:00 13,2 7,2 14,7 11 6 19 10 N 1025,0 47 0,0
20.02.2019 12:00:00 13,8 7,6 18,4 12 7 20 11 NNW 1025,2 57 0,0
20.02.2019 11:00:00 13,9 6,0 18,6 9 5 16 9 NNW 1025,1 56 0,0
20.02.2019 10:00:00 13,2 6,5 9,8 2 1 6 4 ONO 1024,8 49 0,0
20.02.2019 09:00:00 9,4 5,6 5,0 4 2 15 8 ZZW 1024,7 43 0,0
20.02.2019 08:00:00 5,4 3,4 2,5 9 5 15 8 ZZW 1024,2 29 0,0
20.02.2019 07:00:00 5,7 3,2 1,8 10 6 16 9 ZZW 1023,5 23 0,0
20.02.2019 06:00:00 3,1 1,1 2,0 6 3 15 8 Z 1023,6 22 0,0
20.02.2019 05:00:00 3,7 2,4 2,1 6 4 11 6 Z 1023,6 16 0,0
20.02.2019 04:00:00 3,4 1,4 2,2 8 4 14 8 Z 1023,4 17 0,0
20.02.2019 03:00:00 5,1 3,6 2,8 9 5 13 7 ZZW 1023,7 20 0,0
20.02.2019 02:00:00 4,8 2,8 3,6 9 5 14 8 Z 1023,6 31 0,0
20.02.2019 01:00:00 6,4 4,1 4,1 8 5 13 7 ZZW 1023,5 32 0,0
20.02.2019 00:00:00 6,8 4,5 5,7 2 1 12 6 Z 1023,3 36 0,0
19.02.2019 23:00:00 7,6 5,1 6,2 6 3 10 5 ZZW 1023,3 34 0,0
19.02.2019 22:00:00 8,6 5,5 7,4 7 4 9 5 Z 1023,3 37 0,0
19.02.2019 21:00:00 9,9 6,2 9,3 3 1 9 5 OZO 1023,1 44 0,0
19.02.2019 20:00:00 10,1 6,6 9,6 6 3 10 6 ZZW 1023,1 35 0,0
19.02.2019 19:00:00 10,4 6,2 9,6 2 1 8 4 Z 1022,9 17 0,0
19.02.2019 18:00:00 11,0 5,9 10,5 3 1 6 3 NO 1022,5 53 0,0
19.02.2019 17:00:00 11,5 6,0 11,7 5 3 7 4 NO 1022,5 55 0,0
19.02.2019 16:00:00 11,8 5,9 12,2 6 3 10 5 NNO 1022,9 60 0,0
19.02.2019 15:00:00 11,9 5,5 12,8 7 4 13 7 N 1023,0 60 0,0
19.02.2019 14:00:00 11,9 6,2 12,6 8 4 14 8 N 1023,4 60 0,0
19.02.2019 13:00:00 11,9 6,6 12,5 7 4 13 7 NNW 1023,6 57 0,0
19.02.2019 12:00:00 12,2 6,7 12,9 5 3 9 5 NNW 1024,1 56 0,0
19.02.2019 11:00:00 12,2 6,0 13,5 0 0 6 3 N 1023,9 60 0,0
19.02.2019 10:00:00 11,6 6,1 11,4 0 0 8 4 N 1023,7 19 0,0
19.02.2019 09:00:00 9,7 7,3 8,1 0 0 7 4 N 1023,5 43 0,0
19.02.2019 08:00:00 8,4 5,9 7,1 5 3 9 5 ZW 1023,1 40 0,0
19.02.2019 07:00:00 7,4 5,4 6,4 6 3 14 8 Z 1023,0 40 0,0
19.02.2019 06:00:00 6,9 4,9 5,4 9 5 18 10 ZZW 1023,0 32 0,0
19.02.2019 05:00:00 6,2 3,9 5,6 7 4 16 9 ZZW 1022,8 41 0,0
19.02.2019 04:00:00 7,2 5,2 6,3 13 7 16 8 ZZW 1022,6 28 0,0
19.02.2019 03:00:00 8,2 5,8 7,7 9 5 12 7 ZW 1023,2 29 0,0
19.02.2019 02:00:00 8,4 6,4 7,6 6 3 10 5 ZZW 1023,6 28 0,0
19.02.2019 01:00:00 7,8 5,9 5,9 4 2 14 8 ZW 1024,0 33 0,0
19.02.2019 00:00:00 6,1 4,6 3,6 9 5 13 7 Z 1024,1 35 0,0
18.02.2019 23:00:00 4,9 3,2 4,1 7 4 16 9 Z 1024,1 31 0,0
18.02.2019 22:00:00 5,3 3,9 4,1 6 3 16 8 Z 1024,3 19 0,0
18.02.2019 21:00:00 5,8 4,0 4,9 6 3 14 8 ZZW 1024,2 21 0,0
18.02.2019 20:00:00 7,1 5,2 5,9 9 5 14 8 ZZW 1024,1 29 0,0
18.02.2019 19:00:00 7,5 5,6 7,0 13 7 15 8 Z 1024,1 18 0,0
18.02.2019 18:00:00 9,2 6,1 7,9 7 4 9 5 ZZW 1023,6 28 0,0
18.02.2019 17:00:00 12,7 8,4 15,3 5 3 16 9 NW 1023,5 53 0,0
18.02.2019 16:00:00 13,2 8,7 16,3 9 5 21 12 NNW 1023,8 43 0,0
18.02.2019 15:00:00 13,4 8,2 16,3 11 6 22 12 NNW 1024,2 20 0,0
18.02.2019 14:00:00 13,7 8,5 14,9 12 7 21 11 N 1024,7 60 0,0
18.02.2019 13:00:00 13,5 8,8 14,8 11 6 22 12 NNW 1025,3 20 0,0
18.02.2019 12:00:00 13,2 7,8 18,2 13 7 21 11 NNW 1026,0 50 0,0
18.02.2019 11:00:00 12,8 8,3 17,2 10 6 19 11 NNW 1026,2 36 0,0
18.02.2019 10:00:00 11,7 5,1 8,4 3 1 5 3 NNO 1026,3 11 0,0
18.02.2019 09:00:00 8,1 4,5 2,3 5 3 12 7 Z 1026,5 53 0,0
18.02.2019 08:00:00 2,8 1,2 1,4 6 3 11 6 Z 1026,6 34 0,0
18.02.2019 07:00:00 2,4 0,8 1,5 5 3 12 7 Z 1026,3 43 0,0
18.02.2019 06:00:00 3,3 2,0 2,3 10 6 12 6 Z 1026,3 60 0,0
18.02.2019 05:00:00 3,8 2,0 2,6 6 3 13 7 Z 1026,5 60 0,0
18.02.2019 04:00:00 4,5 2,7 3,5 8 5 14 8 ZZW 1026,8 54 0,0
18.02.2019 03:00:00 4,8 3,3 4,0 15 8 17 9 Z 1027,5 22 0,0
18.02.2019 02:00:00 5,6 4,1 4,7 11 6 15 8 ZZW 1027,6 34 0,0
18.02.2019 01:00:00 6,5 4,5 5,2 11 6 14 8 ZZW 1028,1 45 0,0
18.02.2019 00:00:00 9,1 5,8 7,5 4 2 9 5 Z 1028,3 50 0,0
17.02.2019 23:00:00 10,1 7,2 9,9 3 1 9 5 ZZO 1028,4 50 0,0
17.02.2019 22:00:00 10,9 8,1 10,5 0 0 8 4 N 1028,3 36 0,0
17.02.2019 21:00:00 11,3 9,2 10,8 0 0 5 3 N 1028,0 45 0,0
17.02.2019 20:00:00 11,4 9,1 11,0 0 0 4 2 N 1027,9 31 0,0
17.02.2019 19:00:00 11,4 9,1 11,0 0 0 8 5 N 1028,0 23 0,0
17.02.2019 18:00:00 11,3 9,0 10,9 6 3 12 7 ONO 1027,6 51 0,0
17.02.2019 17:00:00 12,3 9,1 12,1 9 5 19 10 N 1027,8 59 0,0
17.02.2019 16:00:00 13,9 9,7 16,9 14 7 19 11 N 1028,0 58 0,0
17.02.2019 15:00:00 14,6 10,0 17,2 15 8 23 12 N 1028,2 60 0,0
17.02.2019 14:00:00 14,6 9,2 15,9 16 9 22 12 N 1028,7 19 0,0
17.02.2019 13:00:00 14,6 9,0 15,8 16 9 22 12 N 1029,1 60 0,0
17.02.2019 12:00:00 14,5 8,0 19,7 9 5 14 7 N 1029,7 60 0,0
17.02.2019 11:00:00 13,8 5,9 18,9 6 4 9 5 N 1030,1 54 0,0
17.02.2019 10:00:00 13,1 5,0 8,0 0 0 5 3 N 1030,2 60 0,0
17.02.2019 09:00:00 8,0 4,9 2,4 4 2 11 6 Z 1030,4 55 0,0
17.02.2019 08:00:00 3,6 1,6 1,9 6 4 11 6 Z 1030,4 59 0,0
17.02.2019 07:00:00 3,0 1,0 1,7 5 3 16 9 Z 1030,0 19 0,0
17.02.2019 06:00:00 3,6 2,0 1,7 5 3 13 7 ZZW 1029,9 58 0,2
17.02.2019 05:00:00 3,4 1,8 2,1 6 3 12 7 Z 1029,6 53 0,0
17.02.2019 04:00:00 5,3 3,3 3,2 10 5 17 9 ZZW 1029,7 52 0,0
17.02.2019 03:00:00 5,0 3,5 3,1 10 6 13 7 ZZW 1030,0 46 0,0
17.02.2019 02:00:00 5,1 3,4 3,1 8 4 16 9 Z 1030,4 40 0,0
17.02.2019 01:00:00 5,0 3,7 3,9 11 6 15 8 ZZW 1030,4 29 0,0
17.02.2019 00:00:00 5,5 4,5 3,6 8 4 15 8 ZZW 1030,4 20 0,0
16.02.2019 23:00:00 5,7 4,5 3,6 9 5 16 8 ZZW 1030,5 18 0,0
16.02.2019 22:00:00 5,6 4,4 4,2 9 5 11 6 ZZW 1030,5 20 0,0
16.02.2019 21:00:00 6,2 4,7 4,4 5 3 10 6 Z 1030,3 20 0,0
16.02.2019 20:00:00 7,5 6,0 6,2 7 4 10 5 ZZW 1030,1 20 0,0
16.02.2019 19:00:00 9,4 7,2 7,6 5 3 10 6 ZZW 1030,3 30 0,0
16.02.2019 18:00:00 11,4 8,1 10,2 9 5 16 9 O 1029,8 43 0,0
16.02.2019 17:00:00 14,3 8,5 15,1 9 5 18 10 Z 1029,5 16 0,0
16.02.2019 16:00:00 15,6 8,1 19,0 7 4 16 9 ONO 1029,6 20 0,0
16.02.2019 15:00:00 16,3 9,2 19,4 8 4 16 9 NNW 1029,6 48 0,0
16.02.2019 14:00:00 16,3 7,5 17,1 11 6 20 11 N 1030,0 36 0,0
16.02.2019 13:00:00 15,9 9,1 17,3 12 7 20 11 N 1030,5 20 0,0
16.02.2019 12:00:00 15,8 8,5 21,7 5 3 12 7 ONO 1030,8 56 0,0
16.02.2019 11:00:00 15,5 7,5 19,2 3 1 5 3 ZO 1030,6 59 0,0
16.02.2019 10:00:00 13,6 8,0 8,5 2 1 5 3 O 1030,6 60 0,0
16.02.2019 09:00:00 8,5 4,7 2,5 5 3 12 6 ZZO 1030,4 58 0,0
16.02.2019 08:00:00 3,5 1,0 1,3 9 5 14 8 Z 1029,8 60 0,0
16.02.2019 07:00:00 3,7 0,9 1,5 9 5 14 8 Z 1029,2 58 0,0
16.02.2019 06:00:00 2,9 0,1 1,4 10 5 15 8 Z 1029,1 60 0,0
16.02.2019 05:00:00 2,5 0,4 0,9 7 4 10 6 ZZW 1029,0 60 0,0
16.02.2019 04:00:00 3,7 0,7 2,7 8 4 17 9 Z 1028,5 60 0,0
16.02.2019 03:00:00 3,9 1,4 1,7 10 5 16 9 ZZW 1028,9 60 0,0
16.02.2019 02:00:00 3,3 1,7 2,1 8 4 16 8 Z 1029,0 60 0,0
16.02.2019 01:00:00 3,0 1,5 1,4 6 3 11 6 Z 1028,9 53 0,0
16.02.2019 00:00:00 4,0 2,7 2,6 7 4 16 8 Z 1029,0 40 0,2
15.02.2019 23:00:00 4,1 2,8 2,6 7 4 12 6 Z 1029,0 20 0,0
15.02.2019 22:00:00 5,5 4,0 3,9 9 5 17 9 Z 1028,9 47 0,0
15.02.2019 21:00:00 5,5 4,1 4,1 5 3 15 8 ZZW 1028,9 26 0,0
15.02.2019 20:00:00 5,9 4,7 4,1 4 2 12 6 Z 1028,8 38 0,0
15.02.2019 19:00:00 7,4 5,9 6,5 9 5 13 7 Z 1028,7 35 0,0
15.02.2019 18:00:00 10,2 7,6 8,6 4 2 9 5 WZW 1028,7 49 0,0
15.02.2019 17:00:00 13,0 8,9 15,9 5 3 16 9 N 1028,4 56 0,0
15.02.2019 16:00:00 13,4 9,3 16,4 11 6 16 9 N 1028,6 45 0,0
15.02.2019 15:00:00 13,8 9,4 16,9 9 5 17 9 N 1029,1 20 0,0
15.02.2019 14:00:00 13,8 9,4 15,3 10 5 18 10 N 1029,5 56 0,0
15.02.2019 13:00:00 13,6 9,2 15,3 13 7 18 10 N 1030,2 49 0,0
15.02.2019 12:00:00 13,8 9,2 19,2 9 5 14 7 N 1031,1 60 0,0
15.02.2019 11:00:00 13,5 8,3 18,1 7 4 11 6 N 1031,2 58 0,0
15.02.2019 10:00:00 12,5 8,2 7,9 0 0 12 6 N 1031,2 60 0,0
15.02.2019 09:00:00 7,7 3,9 1,4 11 6 14 7 Z 1031,5 57 0,0
15.02.2019 08:00:00 2,5 0,7 0,7 5 3 11 6 ZZW 1031,6 29 0,0
15.02.2019 07:00:00 3,1 0,0 1,8 9 5 19 10 Z 1031,3 58 0,0
15.02.2019 06:00:00 2,7 0,9 1,0 8 4 16 8 ZZW 1031,7 60 0,0
15.02.2019 05:00:00 2,4 0,3 1,4 7 4 13 7 Z 1031,7 60 0,0
15.02.2019 04:00:00 3,4 1,1 1,6 9 5 15 8 Z 1031,7 60 0,0
15.02.2019 03:00:00 2,9 0,9 1,5 9 5 14 7 Z 1032,3 60 0,0
15.02.2019 02:00:00 3,7 1,9 1,4 10 6 15 8 ZZW 1032,3 60 0,0
15.02.2019 01:00:00 4,0 1,4 2,6 6 3 16 8 ZZW 1032,3 60 0,0
15.02.2019 00:00:00 3,5 1,7 2,7 11 6 14 8 Z 1032,8 60 0,0
14.02.2019 23:00:00 3,8 2,0 2,2 7 4 10 5 Z 1032,6 57 0,0
14.02.2019 22:00:00 4,4 2,4 2,8 4 2 14 7 WZW 1032,6 60 0,0
14.02.2019 21:00:00 5,0 3,0 3,9 12 7 14 8 Z 1032,6 60 0,0
14.02.2019 20:00:00 5,4 3,2 4,3 11 6 13 7 Z 1032,6 53 0,0
14.02.2019 19:00:00 7,5 4,6 5,9 6 3 12 6 ZZW 1032,5 60 0,0
14.02.2019 18:00:00 9,4 6,3 8,1 8 4 11 6 Z 1032,3 57 0,0
14.02.2019 17:00:00 13,3 7,3 16,1 2 1 19 11 N 1032,6 50 0,0
14.02.2019 16:00:00 14,0 6,8 16,6 13 7 19 10 N 1032,6 56 0,0
14.02.2019 15:00:00 14,3 7,6 17,0 13 7 22 12 N 1032,7 60 0,0

tt = temperatuur
td = dauwpunt
tt 5cm = temperatuur 5cm
ff = windsnelheid
fx = windstoten
dd = windrichting
ppp = luchtdruk
vv = zicht
rr = neerslag

Weerstations in de omgeving